Theta_e
322 322 321 320 320 321 322 322 322 322 322 323 323 323 323 323 323 322 323 321 321 319 319 323 323 321 321 321 323 317 316 308 304 303 301 303 313 324 323 320 324 324 320 308 306 304 302 304 303 305 304 304 302 302 306 309 316 314 305 302 298 300 299 303 302 303 302 302 305 301 300 301 301 302 302 302 302 303 305 303 307 309 308 311 308 305 305 307
322 321 321 319 320 321 321 321 321 321 321 322 322 323 323 323 322 322 322 322 323 321 322 322 321 322 322 321 321 316 311 304 302 301 302 312 323 323 324 325 325 320 311 303 302 302 300 301 303 303 302 301 301 301 305 303 312 307 303 302 295 300 303 307 305 306 304 303 305 303 299 299 300 301 302 298 301 302 301 302 304 305 308 310 309 305 305 307
321 320 319 319 320 320 320 320 320 320 320 321 321 321 322 322 322 322 322 322 323 323 323 322 321 320 321 323 321 315 306 300 299 299 303 316 323 323 324 325 323 317 305 301 304 302 300 301 303 302 301 299 300 298 302 300 305 306 303 296 298 304 304 306 306 305 306 305 303 302 299 298 300 299 301 298 299 300 299 299 302 302 303 306 309 306 306 306
320 319 319 319 319 320 319 320 320 320 320 320 320 320 321 321 321 322 322 322 322 321 322 322 321 322 321 322 322 311 302 300 296 300 304 314 322 324 325 325 320 312 308 306 304 302 301 302 302 302 299 298 298 300 297 302 299 302 300 296 298 303 300 303 306 306 305 301 300 298 297 295 299 299 299 299 297 298 300 303 302 301 303 305 308 307 306 305
319 319 319 318 318 319 319 319 320 320 320 320 320 320 320 320 321 321 321 322 322 322 321 321 321 322 321 316 315 306 301 294 295 300 304 317 322 325 323 321 317 312 307 304 303 301 302 302 301 299 299 296 297 298 297 300 303 302 298 300 302 301 298 302 303 298 296 293 295 295 294 296 298 297 297 298 295 295 300 302 304 303 304 304 306 306 305 305
318 319 319 319 319 319 318 319 319 320 321 321 321 320 320 320 320 321 321 321 322 322 322 322 322 322 316 314 309 305 299 288 300 301 317 318 324 323 321 318 312 310 306 303 302 301 301 299 299 296 295 295 295 293 296 298 302 293 298 300 301 302 299 302 300 292 292 295 294 294 296 296 295 296 298 298 297 300 303 304 303 303 304 304 304 305 304 305
318 318 318 318 318 318 319 319 319 320 320 321 321 321 320 320 320 320 320 321 321 321 322 322 322 320 320 314 310 303 297 298 298 302 319 319 324 322 319 314 309 306 304 301 301 300 299 299 298 296 295 294 295 294 295 296 298 296 293 297 297 298 299 300 298 290 292 292 294 294 293 292 295 292 297 295 298 301 302 303 302 300 300 302 302 304 304 305
318 318 318 317 317 318 318 319 319 319 319 319 321 321 320 320 320 320 320 320 321 320 320 321 320 320 316 306 302 298 296 296 301 301 313 314 317 313 308 304 304 303 302 301 300 298 298 296 296 296 294 293 294 293 295 293 295 294 294 296 296 294 296 296 293 291 290 291 293 290 291 293 295 294 292 292 296 298 300 302 302 301 300 300 301 302 303 304
318 318 317 317 317 318 318 318 318 318 318 319 320 321 321 320 319 319 319 320 320 320 320 320 319 318 312 304 299 295 295 300 301 301 301 304 305 301 302 302 301 302 300 299 300 300 298 297 295 296 293 292 294 293 295 292 291 295 294 295 294 294 295 293 292 292 291 292 289 290 291 294 294 292 290 293 295 298 298 298 298 299 298 298 299 301 302 303
318 318 317 317 318 318 317 317 317 317 318 319 319 320 320 319 319 319 319 319 320 320 320 320 319 313 306 300 299 293 297 300 301 301 299 299 299 301 300 301 301 301 300 298 298 299 297 298 297 298 296 294 294 293 293 293 292 293 294 293 293 294 292 292 291 292 289 290 290 290 291 293 292 290 290 297 296 294 295 295 296 296 296 297 298 300 301 301
318 317 317 317 318 318 317 317 316 316 317 318 318 319 319 319 318 318 318 319 320 320 321 320 319 314 302 300 295 293 300 302 302 301 298 298 300 301 301 299 300 301 300 297 299 300 300 299 297 297 296 294 294 294 293 294 293 292 290 292 292 293 292 292 290 290 291 291 289 290 290 292 291 289 290 294 293 295 294 295 295 295 295 296 298 298 300 301
317 317 317 318 318 318 318 318 318 317 317 318 319 319 319 318 318 318 319 319 319 320 320 320 318 303 302 299 296 296 300 302 303 301 300 300 300 298 299 299 299 301 301 299 300 300 299 299 298 298 293 295 292 292 292 293 292 291 291 289 292 294 292 293 291 289 289 290 289 291 289 290 288 289 294 296 296 295 294 294 295 295 295 296 297 297 298 299
317 317 317 318 318 318 318 318 318 318 318 318 319 319 319 318 318 318 319 319 320 320 319 315 307 305 302 295 298 300 301 301 301 299 300 300 299 298 298 297 298 298 300 300 299 299 299 299 298 296 296 295 294 291 293 292 291 291 291 290 289 291 291 289 288 288 289 290 289 289 284 290 292 293 296 295 294 293 293 294 296 296 296 296 296 296 296 297
317 316 317 317 318 318 318 318 318 318 318 318 318 318 318 317 318 318 319 319 320 320 316 312 306 306 301 297 300 300 300 301 299 301 299 299 299 298 298 298 298 298 298 299 297 297 297 297 299 297 299 295 294 295 292 292 292 289 291 289 287 286 287 289 290 289 290 289 289 291 284 289 293 295 294 294 293 293 293 294 295 296 296 296 296 296 296 297
317 317 317 316 318 319 318 318 318 318 318 318 317 317 317 317 318 319 320 319 320 320 314 310 306 304 299 299 301 303 308 301 300 298 298 300 299 298 299 300 298 297 297 298 298 296 298 299 299 295 294 293 295 293 292 291 290 290 287 287 288 285 289 289 289 289 288 289 290 290 285 289 293 295 293 293 292 291 292 293 294 294 295 295 295 295 295 295
316 317 317 316 318 318 318 318 318 317 317 317 317 318 318 319 319 320 320 321 320 317 309 306 307 303 299 295 298 310 302 299 298 297 297 299 298 298 298 296 297 297 297 297 298 299 299 299 295 294 292 292 292 291 290 289 289 288 286 285 285 287 287 289 289 287 287 289 290 290 286 289 291 292 291 292 292 291 292 292 293 294 294 294 295 295 295 295
316 316 316 315 317 318 317 317 317 317 317 317 318 318 319 320 321 320 318 313 309 308 306 304 304 303 295 299 301 297 297 298 296 298 297 297 298 297 298 298 297 297 298 297 298 298 298 296 292 293 294 292 292 291 286 286 286 287 288 285 287 284 286 285 288 287 288 288 288 289 287 289 291 294 295 292 293 293 292 292 293 294 294 294 294 294 293 293
316 316 316 316 317 318 317 317 318 318 318 318 318 318 319 319 318 313 310 309 306 307 306 304 303 299 296 298 294 295 295 295 297 296 295 295 297 297 297 297 294 296 297 296 297 295 295 293 293 291 292 291 290 289 284 282 285 284 285 285 286 287 287 285 286 288 288 288 287 288 287 288 291 293 294 296 294 292 291 292 292 292 292 292 291 291 290 290
316 316 315 317 317 317 317 316 318 318 318 318 319 316 313 308 307 307 305 303 301 298 295 297 298 291 290 293 294 295 295 295 295 296 296 297 297 296 296 296 296 295 293 292 293 293 295 294 293 290 287 289 289 289 287 288 288 286 286 286 285 283 286 286 289 289 288 288 288 288 286 289 291 292 293 295 293 292 291 292 291 290 289 288 288 287 287 288
316 316 315 316 316 317 315 317 318 318 318 315 312 309 308 304 302 299 304 300 299 296 297 298 297 296 294 293 295 297 294 295 295 294 295 295 298 296 294 295 295 295 293 290 293 292 293 289 287 287 290 291 291 291 290 289 287 287 287 286 285 285 286 289 289 288 289 287 287 288 289 288 289 290 292 293 293 291 290 288 286 286 286 286 286 285 286 286
315 316 315 315 316 316 316 316 317 316 313 313 311 306 298 298 294 294 298 299 294 293 296 296 296 294 295 294 294 295 293 293 294 295 294 295 294 293 292 293 292 290 291 289 291 293 291 287 288 291 291 290 288 288 288 287 287 287 287 286 285 286 284 289 288 286 289 285 286 287 285 286 288 290 292 293 289 285 285 285 285 284 285 285 284 284 284 285
315 315 315 315 316 317 317 316 317 316 313 311 307 303 301 306 304 303 300 295 296 295 292 292 292 294 293 293 293 293 294 293 292 294 295 296 294 291 292 291 290 289 289 290 290 290 288 286 291 288 288 288 286 286 287 287 287 287 285 286 284 286 288 289 286 285 286 285 285 286 284 285 287 289 291 288 285 285 285 284 283 283 283 283 283 284 284 284
315 314 315 314 316 317 316 316 315 314 312 308 309 304 305 307 305 306 302 297 296 296 295 296 294 292 293 293 293 293 293 291 290 292 293 295 293 292 291 289 289 289 287 290 287 287 285 289 288 286 288 287 286 285 286 286 287 286 286 284 283 287 283 283 284 284 285 284 284 285 283 284 287 289 288 285 285 284 284 284 284 284 283 283 283 283 283 283
315 315 314 314 316 317 317 316 314 310 309 310 309 303 303 304 303 303 303 294 293 296 296 294 293 293 292 292 293 294 292 291 290 290 294 294 292 291 290 289 288 286 288 289 288 287 287 288 284 286 287 287 286 285 286 286 285 287 286 285 285 285 286 284 285 284 286 286 283 282 282 284 287 287 284 285 285 284 284 284 283 284 284 284 285 284 284 283
314 315 314 314 315 315 316 314 305 305 307 305 305 303 301 301 304 307 299 292 292 293 295 296 293 293 294 295 295 293 291 290 290 290 292 294 291 289 290 288 289 288 287 287 286 287 287 286 285 285 285 285 286 285 285 286 284 286 287 286 286 287 285 285 285 283 282 282 282 281 280 283 285 285 286 286 285 283 283 282 282 282 283 283 283 283 284 284
314 314 314 314 315 315 316 303 303 303 304 307 304 302 301 300 302 305 298 289 285 292 297 291 296 292 295 292 295 292 291 291 290 292 295 295 293 292 290 289 286 287 286 286 288 288 287 282 284 285 285 285 284 285 286 286 284 283 283 281 284 285 284 283 282 282 280 279 281 282 278 277 286 285 286 284 283 282 283 282 282 282 282 282 282 283 283 283
314 314 314 315 315 315 303 302 302 305 300 303 306 303 301 303 304 305 294 286 283 291 292 296 294 293 296 292 292 293 288 289 291 292 292 293 291 296 288 289 289 289 288 290 285 285 284 284 284 284 284 284 284 284 285 285 284 283 281 281 282 282 282 282 282 282 281 283 283 281 282 278 279 284 282 284 282 280 280 281 281 282 282 282 282 283 283 283
314 313 315 315 313 310 306 304 303 306 302 303 302 300 302 302 304 307 291 277 276 295 291 294 294 299 297 293 293 292 291 291 289 290 291 292 290 292 290 289 288 289 288 287 281 287 284 283 283 283 283 284 284 284 283 286 284 283 281 281 282 281 282 281 281 281 281 278 278 280 282 277 277 282 283 282 279 278 278 279 280 281 282 282 282 282 283 283
314 314 315 314 310 306 310 308 309 304 303 302 298 302 303 305 306 294 285 276 286 291 300 293 298 294 293 294 292 287 291 292 289 292 292 291 292 290 289 289 288 288 288 288 285 285 285 283 285 285 284 284 284 282 281 285 283 282 281 281 281 282 281 281 280 280 279 277 275 279 280 276 278 282 280 281 278 275 276 279 280 281 281 282 282 282 283 283
314 314 314 313 310 310 310 309 309 303 300 297 299 301 303 304 297 288 279 273 290 285 293 295 293 291 292 291 291 289 289 289 288 290 291 291 291 292 288 289 290 288 287 287 286 287 284 286 285 285 284 284 283 281 280 282 282 281 282 282 282 281 282 281 280 279 278 274 278 279 280 279 275 277 275 274 274 275 277 279 280 281 281 282 282 282 282 282
313 313 312 310 311 307 309 306 305 301 299 299 298 306 303 299 288 281 271 282 290 289 293 292 290 293 289 286 286 290 289 287 290 290 290 292 290 291 290 287 289 286 284 285 284 286 285 284 284 284 282 282 283 282 280 280 281 281 282 282 282 281 278 279 278 279 274 275 278 278 277 280 272 277 275 276 278 278 277 277 278 279 280 281 282 282 282 282
310 310 310 311 306 303 306 305 302 301 299 297 305 304 298 286 285 281 279 292 283 287 287 288 289 287 288 286 285 285 284 288 288 289 286 286 287 287 286 284 284 282 284 283 283 286 285 283 283 283 284 283 283 283 282 282 282 282 282 282 278 276 278 275 277 273 276 275 277 276 277 276 278 276 276 277 277 278 279 279 278 279 280 281 281 281 281 281
310 308 308 305 306 308 304 301 299 301 299 304 304 300 291 284 275 280 281 285 283 287 287 288 287 286 285 284 286 284 284 285 288 288 285 286 286 285 282 284 283 283 279 283 281 282 283 278 282 283 282 285 284 282 283 281 281 282 281 280 277 274 272 270 274 276 275 279 275 277 278 275 277 275 278 277 278 279 279 280 280 280 280 280 281 281 281 281
308 310 306 302 303 302 300 298 297 299 303 306 300 294 287 279 277 282 281 285 285 288 288 286 287 285 284 286 285 283 285 285 285 286 287 286 286 285 285 286 285 285 283 283 281 279 277 280 283 283 283 283 284 283 282 281 282 282 282 280 279 277 273 268 272 270 272 275 278 277 275 275 275 275 278 278 280 280 280 281 281 281 281 281 281 281 281 280
305 303 303 301 301 299 300 297 298 299 308 306 296 290 280 280 278 281 283 286 286 288 287 284 284 284 284 283 283 284 283 284 284 284 286 285 283 284 283 284 285 283 283 281 281 278 279 280 281 280 281 282 283 281 280 281 282 280 280 281 278 277 281 273 276 275 274 273 273 276 276 277 276 278 279 281 280 280 279 280 280 280 281 280 280 279 279 280
308 305 305 302 304 302 299 298 297 301 306 300 290 283 282 282 283 282 286 287 286 286 287 285 283 284 283 284 281 283 286 283 286 285 284 284 283 283 282 283 283 283 282 280 281 278 281 280 280 282 281 283 283 281 282 283 277 280 279 278 279 281 279 275 277 276 273 274 271 279 277 277 276 277 278 280 279 278 278 278 279 279 280 279 279 279 279 279
305 306 303 302 305 303 301 298 300 305 304 298 289 282 284 282 284 285 288 287 286 286 283 283 283 282 282 282 283 283 284 283 283 283 282 283 282 283 282 283 282 284 283 282 282 283 277 279 283 283 281 283 281 281 282 283 283 282 278 280 282 281 280 277 270 273 272 270 272 277 273 276 275 273 276 278 276 277 277 277 277 278 279 278 278 279 280 279
306 303 301 302 302 302 299 298 302 304 302 294 284 287 285 286 284 286 286 286 286 284 285 283 283 283 281 281 282 282 284 283 283 283 281 283 280 284 283 283 283 283 284 284 281 281 282 277 281 280 282 283 280 282 283 283 282 282 279 283 278 274 274 279 273 267 268 268 270 274 276 276 277 277 276 276 274 275 276 277 276 276 277 278 278 279 280 280
300 303 298 301 302 300 300 298 306 304 297 288 284 285 285 286 285 285 286 286 285 284 284 282 282 282 282 282 282 281 281 282 282 282 280 281 279 283 282 282 284 286 284 283 283 283 284 277 279 278 281 282 282 283 277 281 282 281 282 281 282 279 276 273 276 274 273 268 269 269 274 272 278 276 275 275 275 275 276 276 275 276 277 277 278 278 278 279
303 299 293 301 300 301 299 305 306 300 295 284 284 284 284 286 286 286 284 285 286 285 284 283 280 283 283 281 281 282 282 281 282 282 281 282 281 283 282 285 282 284 285 283 283 284 282 283 274 282 280 283 280 283 279 280 279 280 281 280 279 280 281 279 277 274 272 269 269 268 267 273 277 277 276 275 276 276 276 275 275 276 277 277 278 278 278 278
294 300 300 307 301 299 304 304 296 290 287 284 286 286 285 288 288 288 286 285 287 287 285 285 285 284 283 283 282 282 282 282 281 282 281 281 281 280 283 282 282 282 285 283 283 282 281 281 276 279 280 280 281 284 281 281 282 280 280 277 278 275 273 271 270 277 271 272 269 268 266 274 276 278 277 277 277 275 277 276 275 277 277 278 278 278 278 278
302 292 295 302 300 304 304 293 286 284 288 287 287 287 289 290 288 286 287 286 285 287 287 285 283 284 283 283 283 282 282 282 281 281 281 281 282 282 284 283 282 283 282 282 281 284 282 281 278 276 279 279 282 281 280 280 282 281 281 278 279 278 277 273 267 271 274 274 274 273 268 271 275 278 278 276 276 276 276 277 275 276 277 278 278 279 278 279
297 293 301 301 298 308 297 287 287 287 286 286 285 287 286 286 286 286 286 286 286 285 286 286 284 283 283 283 282 283 282 281 281 282 281 282 281 283 284 283 285 283 284 284 282 282 283 279 276 278 281 283 283 281 281 281 281 280 280 279 279 276 276 274 274 275 271 271 270 271 268 272 275 279 278 277 276 275 276 276 274 274 275 276 278 278 278 278
295 296 298 302 299 309 302 286 286 286 286 287 287 286 284 287 288 287 287 286 285 286 285 284 284 284 283 283 283 283 283 279 281 281 282 281 282 284 283 284 287 284 283 282 280 285 278 281 278 274 274 277 279 278 278 280 281 279 277 277 276 276 275 274 274 274 269 271 271 269 263 270 275 278 279 277 276 275 275 275 276 274 275 275 277 277 276 277
292 293 295 298 298 301 293 291 291 285 284 285 285 284 285 286 284 285 286 286 286 285 284 284 283 284 285 283 283 283 283 282 281 281 280 281 282 282 284 284 286 284 285 286 285 286 280 279 278 271 268 267 267 268 270 274 276 278 276 276 276 274 274 273 271 272 267 271 272 268 267 274 276 277 276 276 276 276 277 276 276 276 275 275 276 276 275 275
296 287 292 295 294 293 289 287 290 290 283 283 284 282 283 284 284 284 286 286 285 285 285 285 285 284 284 283 283 282 282 283 281 281 281 282 282 283 283 284 284 283 285 284 281 284 279 278 278 277 275 272 273 276 280 280 277 273 276 275 272 274 272 272 273 270 267 269 267 270 270 269 271 274 275 276 275 274 275 275 274 274 275 275 275 275 275 275
294 290 286 287 292 290 287 289 288 289 286 287 283 283 283 283 282 285 286 286 285 286 287 285 284 283 283 283 281 281 282 281 282 280 278 278 281 282 283 283 284 284 284 284 282 280 279 277 277 276 277 278 279 278 278 277 274 276 275 275 273 272 271 271 270 267 270 267 264 272 270 268 269 273 274 274 274 274 274 275 275 274 274 274 274 275 275 274
291 286 290 289 288 285 288 287 286 287 286 288 283 283 282 282 283 282 285 286 285 285 284 284 284 284 283 282 282 279 279 279 279 278 279 278 279 282 282 283 282 282 284 282 283 280 276 274 274 272 275 276 277 276 277 276 276 276 275 274 271 272 272 269 269 270 270 266 264 268 270 268 270 272 274 274 274 273 274 274 275 275 275 275 274 273 273 273
291 289 290 287 288 283 284 284 286 287 286 286 284 284 282 282 281 282 281 284 285 284 285 280 280 283 283 283 282 280 279 276 277 277 274 278 277 278 279 281 282 283 283 281 280 277 276 276 274 273 273 274 275 275 276 275 275 274 273 271 272 272 272 271 270 271 269 268 269 270 269 269 271 273 273 274 274 273 274 276 276 274 273 273 272 272 272 273
291 292 287 287 287 285 284 284 284 286 285 284 283 282 282 281 282 282 283 282 282 281 285 281 282 283 282 281 281 278 279 280 278 277 279 277 279 278 278 279 279 283 282 278 277 279 275 273 274 272 271 272 273 274 275 275 273 271 272 272 272 272 271 271 270 270 270 269 269 269 268 267 273 274 273 274 274 274 273 273 273 273 273 272 271 271 272 273
293 291 294 290 287 283 286 283 286 285 284 284 283 282 283 282 282 282 282 283 282 280 283 280 282 282 282 280 280 279 281 281 281 281 282 280 277 281 278 278 281 277 279 277 277 276 275 273 271 270 270 271 273 273 274 274 272 270 269 270 270 269 267 269 267 270 268 266 267 267 266 267 273 274 273 273 273 272 271 272 272 272 272 271 271 271 272 273
292 289 291 293 285 282 283 282 282 285 282 282 283 282 282 281 282 283 282 283 283 284 283 282 282 282 281 280 278 280 282 282 282 283 283 284 284 282 282 281 281 279 276 277 272 274 272 272 271 271 269 270 272 273 272 271 269 268 267 268 269 270 271 270 271 271 270 269 266 264 265 271 272 272 270 271 271 271 271 271 271 271 272 271 271 272 272 272
Wind_Speed
8 6 7 8 6 7 8 7 7 6 6 5 5 4 4 4 4 3 3 3 3 3 4 3 2 2 2 2 2 2 2 1 1 1 2 3 3 0 3 3 4 6 4 2 3 5 4 4 5 3 4 5 1 4 3 3 1 4 5 6 9 8 9 5 8 6 4 7 6 1 2 5 11 2 2 2 8 10 8 8 7 8 12 12 1 3 3 5
8 8 8 5 7 9 8 7 6 5 5 5 6 5 5 6 5 5 5 4 4 4 3 3 2 2 3 3 2 1 2 2 2 1 2 4 2 3 2 1 6 6 4 1 0 2 3 4 4 5 5 4 1 1 2 3 3 6 4 5 10 5 4 2 5 6 7 10 9 6 3 4 9 5 1 6 9 8 11 12 11 12 15 14 10 7 5 7
5 5 6 8 9 9 8 7 6 6 5 5 6 6 6 6 6 6 6 6 5 4 2 3 4 3 4 4 4 1 4 3 3 2 3 3 6 4 4 2 6 4 1 1 0 3 3 1 5 6 4 3 2 2 4 2 5 6 6 9 9 5 6 2 2 7 7 9 11 11 2 4 4 2 2 7 13 10 14 11 9 12 14 14 16 10 9 9
4 5 7 8 8 8 7 7 6 5 5 5 5 5 6 6 7 7 7 6 5 4 3 2 3 3 4 4 5 3 4 4 3 3 1 5 6 4 3 6 6 5 4 5 2 2 2 4 6 5 3 6 3 2 5 4 6 3 6 8 5 2 7 6 7 8 6 3 9 7 1 6 6 5 4 7 10 16 17 15 15 13 12 12 9 11 10 11
4 6 7 8 7 6 6 6 6 5 5 5 5 6 6 8 8 8 7 6 5 4 4 3 3 3 3 4 3 3 2 6 2 1 3 4 4 5 5 5 4 2 2 6 6 4 3 5 6 2 3 3 2 3 6 4 2 1 8 8 8 1 7 8 3 2 2 2 5 4 8 9 4 4 9 12 13 17 13 9 7 9 12 13 4 8 9 12
5 6 7 7 7 6 6 6 5 5 5 5 6 7 8 8 8 8 7 5 5 4 4 5 4 3 2 3 3 4 3 2 1 1 3 3 2 5 5 5 5 5 6 3 1 3 4 4 5 4 3 4 4 6 3 3 3 8 9 10 9 8 11 2 2 2 1 4 4 8 4 5 7 10 10 13 20 20 14 8 3 6 5 2 1 6 10 12
5 6 6 6 6 5 5 5 5 5 6 6 7 7 8 8 9 8 6 5 5 4 4 4 3 2 4 3 1 0 2 2 2 2 2 3 4 5 6 6 4 3 2 3 2 4 2 3 4 3 3 3 4 6 1 3 3 7 10 1 5 2 10 4 4 3 3 5 8 3 3 8 9 15 4 13 22 20 18 10 1 0 0 2 5 9 12 14
6 6 6 6 5 4 4 4 4 5 6 6 7 7 7 7 7 7 6 6 5 4 4 3 3 3 3 2 3 2 1 0 4 1 1 4 4 6 6 4 2 2 1 1 3 3 3 5 5 3 5 5 2 4 2 4 6 8 10 8 6 2 8 6 4 4 5 8 5 3 9 15 12 12 7 20 22 13 14 14 12 8 7 7 10 11 11 12
6 6 6 5 4 3 2 2 3 4 5 6 7 7 7 6 6 5 5 5 4 4 4 4 4 2 3 2 3 3 2 3 2 2 1 3 3 3 0 2 1 3 3 1 1 1 4 3 2 6 3 3 3 6 3 4 7 9 12 5 6 8 6 3 6 9 6 3 2 5 13 15 11 5 14 25 24 15 11 12 14 11 10 14 15 15 13 13
6 6 6 5 3 2 1 1 1 2 4 5 6 6 5 5 5 4 4 4 4 4 5 4 4 2 2 4 2 3 2 1 1 1 2 3 4 5 2 1 5 5 2 2 3 4 5 1 2 3 4 2 2 3 3 6 2 1 4 6 9 11 7 3 7 1 2 2 2 7 15 15 3 2 14 6 1 5 2 8 7 7 12 14 12 11 12 14
6 6 6 5 3 2 3 4 3 1 2 4 5 5 5 5 5 5 4 4 4 5 5 5 4 2 3 3 3 1 2 3 1 2 1 3 5 4 3 3 2 2 3 3 3 5 2 3 3 3 2 2 4 3 5 1 4 3 5 8 11 11 7 7 7 8 1 4 2 6 15 15 4 4 16 8 4 1 6 10 8 8 11 12 13 12 11 11
6 6 6 5 2 4 6 6 5 3 3 4 5 5 5 5 5 5 5 5 5 5 5 5 4 1 1 2 4 2 2 1 3 2 3 1 2 2 2 2 2 2 3 2 3 5 4 1 6 4 3 3 4 1 3 1 2 2 4 10 11 10 12 4 6 4 1 1 2 3 14 18 13 12 21 11 4 4 7 11 11 11 11 12 12 11 9 11
5 6 6 4 3 6 7 6 5 5 4 5 5 5 5 5 5 5 5 5 6 5 5 5 2 2 3 4 1 2 0 2 3 2 2 4 5 4 4 2 2 1 3 3 1 1 3 4 6 6 1 3 1 4 3 3 2 3 4 4 13 9 7 4 0 1 3 2 2 3 9 11 7 18 9 4 2 3 7 11 12 10 8 9 9 9 10 10
5 5 5 3 5 6 6 6 6 6 6 5 6 6 6 6 5 5 6 5 6 5 5 3 1 1 3 0 2 1 1 2 2 1 7 2 3 2 1 3 2 2 1 1 3 1 4 1 3 4 2 2 1 2 3 1 2 6 1 2 7 7 3 2 2 1 3 2 2 4 6 13 15 3 4 2 1 3 11 12 13 12 11 9 8 9 10 11
5 5 5 4 6 6 7 7 6 6 6 7 7 7 7 6 5 5 6 5 4 5 4 2 1 3 2 2 1 1 4 2 2 3 3 5 4 2 3 2 3 5 3 3 2 1 2 6 5 3 1 1 1 3 4 4 1 1 6 3 3 3 3 3 4 3 5 3 2 4 8 12 16 10 6 3 3 2 9 15 17 15 15 14 12 12 12 12
5 6 5 5 5 6 7 8 7 7 7 7 7 6 6 5 5 5 5 2 4 2 2 3 1 2 2 1 3 3 2 2 2 2 1 3 2 4 3 2 1 2 0 4 1 2 2 2 2 2 0 3 4 4 6 6 4 2 5 5 5 4 7 9 4 0 1 2 3 5 9 14 16 4 5 6 4 5 11 17 18 17 17 15 12 12 12 13
5 6 5 5 3 6 8 8 7 6 7 7 7 6 5 4 5 6 5 3 1 0 2 1 2 1 3 2 0 3 2 2 0 1 1 4 3 2 2 2 1 4 5 5 1 2 3 2 1 2 1 3 1 2 5 5 3 3 2 4 5 9 8 7 5 3 2 4 4 6 8 17 19 20 11 7 6 10 14 16 17 14 14 15 14 13 13 13
5 6 4 4 2 6 8 8 7 7 7 7 6 5 5 6 6 6 4 3 0 1 3 1 1 2 2 1 3 2 2 3 2 2 1 1 4 2 2 1 1 3 4 3 2 5 2 2 1 4 2 3 4 4 3 5 4 5 5 7 7 6 9 12 9 3 1 6 7 8 13 23 23 20 20 12 5 6 13 14 16 17 16 15 14 15 16 15
5 5 4 2 2 4 7 7 7 7 7 6 6 6 6 4 2 1 2 1 2 3 3 3 3 3 2 3 2 3 2 1 1 2 2 3 4 2 3 2 1 5 3 3 3 4 1 3 1 4 7 6 8 9 7 9 4 9 6 8 9 9 10 7 5 2 0 9 9 10 11 17 21 20 20 9 3 7 13 13 11 13 15 17 17 16 16 16
4 5 4 2 1 2 5 7 7 7 10 8 4 3 2 2 2 2 2 1 3 2 2 2 1 2 1 1 1 3 1 1 2 3 1 2 2 0 0 2 2 1 3 4 3 2 3 5 5 6 7 6 6 9 9 3 2 3 4 6 10 10 16 13 6 4 2 4 12 11 12 16 20 21 21 15 8 12 14 16 17 16 16 16 16 16 17 17
4 5 4 2 1 2 4 7 10 9 4 2 2 2 1 1 3 1 1 1 2 0 3 1 1 2 3 1 2 4 1 2 2 2 4 0 1 2 1 1 3 5 2 2 1 2 2 6 11 11 9 5 2 1 1 2 2 6 8 9 11 9 12 10 3 6 2 2 6 3 7 15 20 22 20 12 16 18 18 18 19 18 16 15 18 18 18 15
4 5 5 4 2 2 4 6 8 7 3 0 1 1 1 2 1 1 1 3 3 1 0 2 1 1 0 2 1 2 2 2 2 1 3 3 1 3 2 3 3 5 3 2 2 4 5 8 7 6 4 5 3 2 3 6 6 5 7 7 6 11 9 13 3 3 2 4 10 5 9 15 20 22 18 15 17 15 17 17 16 16 17 16 17 18 18 19
4 4 6 4 3 4 4 6 6 6 2 2 1 1 2 0 1 2 1 1 1 2 2 1 1 1 1 2 1 3 2 1 2 2 4 6 2 1 1 3 3 1 1 4 6 4 7 5 4 3 4 4 3 2 3 3 4 6 6 5 9 2 3 6 3 3 4 3 9 11 15 15 18 17 10 18 17 15 15 17 17 16 18 19 20 19 19 21
3 4 5 4 4 4 5 5 6 4 2 2 3 1 1 1 0 2 1 2 2 1 2 1 2 1 2 2 1 2 2 1 1 1 3 2 3 1 2 1 2 1 5 6 9 8 10 3 2 4 3 3 2 3 4 4 8 7 9 10 10 11 7 6 7 5 7 9 6 10 12 11 7 7 14 10 16 18 15 15 17 17 16 15 14 17 20 21
3 5 4 4 5 5 5 6 2 1 2 2 0 0 1 1 2 3 2 1 2 1 1 1 2 2 2 3 1 3 2 1 2 2 3 4 2 3 1 1 2 4 1 1 2 7 12 4 1 2 1 2 4 5 6 5 8 7 9 12 13 12 13 9 7 10 7 5 4 4 9 12 2 2 8 11 11 17 15 18 19 18 18 16 18 19 18 18
3 5 4 4 5 5 6 2 2 3 2 3 1 1 1 2 2 2 1 2 0 2 3 2 2 2 2 1 5 2 2 2 2 1 3 3 2 2 2 2 0 2 3 3 4 5 3 1 2 2 2 2 4 6 0 5 7 6 3 2 7 9 8 7 9 5 6 7 2 3 4 12 5 3 5 10 14 14 15 18 18 17 17 17 16 18 19 20
2 4 4 4 4 8 5 3 3 3 2 1 1 1 1 2 2 2 2 0 1 1 3 2 2 2 2 3 3 1 3 3 0 0 1 2 1 1 3 0 1 1 1 2 3 3 3 3 3 2 2 2 2 4 5 8 3 4 4 2 1 1 4 4 4 5 10 8 9 7 10 9 12 1 11 7 9 14 17 18 18 17 17 17 18 20 21 19
2 2 4 4 5 4 2 4 3 3 0 1 1 0 1 2 1 2 1 2 1 1 3 2 2 1 0 2 2 1 3 5 2 2 2 1 1 2 2 3 4 3 3 1 7 2 1 2 2 2 2 3 4 2 1 8 6 2 1 2 1 1 3 3 5 7 4 6 10 7 9 5 7 3 11 12 9 15 17 16 17 17 17 20 22 21 19 18
3 3 4 6 6 5 3 1 2 2 1 1 1 1 1 2 1 0 0 0 1 2 2 1 1 1 4 3 4 2 3 4 3 3 2 1 2 2 3 0 1 1 1 3 8 1 2 1 2 0 1 5 4 1 2 5 9 2 2 2 2 1 1 3 5 4 3 3 11 5 10 7 10 2 8 8 8 14 15 15 15 18 20 19 17 17 17 16
4 4 5 6 5 1 1 2 4 1 1 1 0 2 1 1 2 1 1 1 2 1 1 2 2 5 3 7 0 6 2 2 1 6 3 1 2 2 3 2 1 2 4 1 6 7 1 2 2 1 3 2 3 2 0 3 2 2 2 5 4 5 3 2 1 1 2 5 8 4 9 7 6 5 7 9 7 8 11 11 13 15 16 16 16 17 15 14
3 2 1 0 1 1 1 2 1 1 1 0 2 1 0 3 1 2 1 1 1 1 1 2 2 2 5 8 3 2 1 2 4 6 1 1 2 2 3 2 3 3 2 4 5 4 3 3 2 2 1 3 1 3 2 1 2 2 2 4 9 5 3 3 1 3 2 7 5 5 3 5 7 0 6 6 5 7 8 10 13 15 15 14 14 13 11 13
8 9 8 5 1 1 1 3 1 0 1 2 1 3 0 2 0 1 1 1 1 4 3 4 2 2 3 1 3 7 5 4 2 4 5 4 4 6 6 4 6 4 0 5 5 2 2 2 3 1 1 3 3 4 3 2 3 2 3 5 4 6 3 4 3 4 3 8 3 3 2 3 9 5 6 7 5 6 7 7 10 12 13 13 13 14 14 15
6 10 13 7 1 4 3 1 1 1 1 1 3 2 0 1 0 0 1 4 1 2 2 1 3 4 5 3 4 4 2 2 3 1 2 0 1 5 1 3 3 3 4 3 7 5 2 2 1 2 2 2 3 4 3 2 4 3 3 1 5 6 4 8 9 5 5 3 3 3 5 7 4 4 7 6 6 5 6 8 7 10 11 13 14 14 13 13
5 1 7 3 6 3 1 1 0 1 0 1 1 2 2 1 0 1 1 2 3 1 3 2 3 1 4 3 3 5 1 3 5 5 3 3 2 4 3 4 5 2 1 6 5 5 4 1 4 3 2 3 3 2 2 4 3 2 3 3 3 4 4 7 7 11 11 13 6 5 5 3 5 4 8 7 5 7 5 6 7 8 10 10 11 13 15 15
10 9 5 2 2 3 3 1 1 2 1 2 5 2 1 0 1 0 0 2 1 3 2 2 2 1 1 1 3 2 1 2 3 5 4 5 4 4 6 9 7 4 4 4 2 1 2 6 4 4 1 2 2 1 2 3 2 3 1 1 2 2 2 8 7 10 9 10 11 4 4 4 3 8 8 4 5 7 9 9 8 10 11 11 11 13 14 14
2 2 1 3 4 3 2 1 1 1 1 3 2 2 0 0 1 3 1 1 1 3 7 2 1 0 1 1 1 2 1 3 5 5 2 4 3 4 2 3 7 7 6 4 4 4 6 4 5 3 1 3 1 1 1 2 3 2 2 3 2 2 3 5 9 4 1 6 10 4 6 4 5 5 5 4 4 7 9 10 11 11 11 13 12 13 14 14
2 2 4 4 3 3 2 0 1 1 4 3 2 0 1 1 1 2 1 1 2 2 2 3 2 3 3 2 2 5 2 1 0 4 3 2 3 8 4 2 1 4 3 3 2 2 2 13 3 2 3 2 1 1 2 4 2 1 4 4 5 3 3 3 5 6 8 10 10 5 10 8 2 5 9 1 6 10 12 13 12 13 11 12 11 11 12 13
2 3 2 3 4 4 2 2 1 3 3 2 1 3 2 1 1 1 1 1 1 2 2 1 1 3 1 2 3 3 7 2 6 4 3 3 3 4 4 4 1 2 5 3 2 2 3 9 2 4 5 2 2 3 3 3 2 3 4 2 5 2 4 1 1 6 9 10 10 9 15 13 13 6 4 6 11 12 12 13 12 15 14 13 14 16 14 14
2 2 2 4 1 3 2 2 2 2 2 2 0 1 1 2 0 0 1 2 1 2 1 1 1 3 1 0 2 2 2 5 5 3 1 3 1 6 5 3 5 5 2 3 3 2 3 4 3 2 0 1 2 2 8 5 4 0 3 2 2 3 4 5 4 4 5 14 12 13 7 11 4 1 5 7 9 10 12 12 14 14 14 12 13 15 15 15
1 2 3 1 3 3 2 1 2 4 3 1 1 0 0 0 2 1 0 2 1 2 1 1 1 1 2 2 2 3 1 1 4 2 2 4 2 2 8 6 3 8 5 0 1 2 1 2 7 2 6 3 5 4 8 8 3 1 0 2 0 2 4 5 4 4 5 9 10 12 13 8 3 4 3 6 8 10 11 11 10 10 11 13 13 13 13 14
1 3 1 3 6 3 1 7 7 4 3 1 2 2 0 2 1 1 1 2 1 0 1 0 0 1 2 1 1 1 3 2 1 1 2 4 6 1 5 5 4 5 6 2 1 3 2 3 6 12 12 8 7 4 5 2 2 2 4 3 4 6 7 6 8 4 0 5 10 10 14 12 4 3 4 7 7 8 10 10 11 11 13 13 15 16 13 13
1 2 2 4 7 2 0 4 2 1 0 1 2 1 2 1 1 2 0 1 2 2 1 2 3 2 1 1 2 1 3 2 0 1 2 1 4 4 5 2 4 5 4 3 1 3 2 3 4 8 8 9 15 6 2 1 2 6 4 5 3 2 2 3 11 8 6 7 2 10 14 11 5 4 4 6 7 8 9 9 9 12 13 14 15 16 16 14
3 3 1 5 7 2 6 3 1 1 2 2 2 2 1 1 2 1 0 2 0 1 1 3 3 1 2 2 0 2 2 1 1 3 2 3 3 2 4 9 6 2 4 1 2 1 2 2 3 9 9 10 4 5 4 5 5 3 5 5 2 3 5 5 8 9 11 13 12 10 11 4 3 3 2 7 5 4 5 8 11 11 11 13 15 16 16 17
2 2 2 0 4 1 1 1 2 1 1 1 2 3 1 2 3 3 2 3 3 3 3 2 2 3 1 1 1 2 1 1 2 2 2 2 2 2 3 5 8 5 4 2 2 5 3 2 2 8 7 6 3 3 2 2 1 4 5 4 2 1 1 3 4 4 7 11 11 10 13 9 4 1 2 6 6 7 8 8 9 12 13 14 14 14 16 18
4 0 0 5 7 4 1 1 3 2 1 3 2 5 3 2 3 1 2 4 2 2 1 3 2 3 1 0 1 1 2 2 2 3 0 1 1 1 2 3 8 6 4 4 4 4 3 4 3 4 7 9 10 11 10 8 9 4 3 2 5 4 7 4 7 6 9 6 7 7 11 11 5 1 5 9 11 11 10 9 11 10 12 15 15 15 17 17
1 1 4 4 6 5 5 0 2 4 3 2 3 1 1 3 2 1 1 3 1 1 3 1 1 0 2 3 2 3 4 2 1 2 2 2 3 1 4 6 4 6 8 6 5 3 1 1 3 4 4 7 9 10 10 9 11 9 9 1 1 2 1 1 5 7 6 7 8 11 10 15 20 18 17 13 14 16 17 15 13 13 15 15 15 16 18 18
1 2 0 1 1 6 4 3 2 1 1 1 2 1 5 4 2 1 2 2 3 2 2 5 5 2 3 2 3 1 3 4 2 0 2 2 1 3 4 1 1 8 9 1 4 2 1 2 2 3 4 9 11 14 14 11 10 11 11 7 6 3 0 2 5 5 8 8 9 8 18 17 17 19 17 16 14 14 15 16 14 12 14 15 17 20 22 20
1 1 0 1 0 0 1 3 4 4 3 1 2 0 3 3 5 2 2 3 1 1 1 3 6 6 2 2 2 2 7 5 2 1 2 1 3 6 3 4 5 6 6 4 4 2 1 1 1 2 7 8 15 16 13 9 6 8 12 8 7 5 2 4 3 5 8 4 9 15 17 18 18 17 16 11 12 14 17 16 15 16 18 21 23 24 23 21
3 3 2 3 1 1 2 1 2 4 8 5 3 4 2 4 5 3 2 3 2 5 6 2 6 7 4 1 1 1 3 2 2 0 1 3 1 3 2 1 3 7 8 3 5 1 1 1 1 2 9 11 13 10 3 3 9 11 4 6 6 6 5 5 6 7 9 10 13 15 16 19 19 15 8 9 12 14 15 14 15 18 19 22 23 23 22 20
4 3 1 4 6 4 2 1 1 1 6 4 2 4 2 4 4 1 2 4 2 4 4 3 4 4 2 5 4 2 2 2 3 5 2 1 4 3 2 1 3 3 6 4 2 3 3 2 4 3 4 7 3 1 1 8 9 9 5 7 8 7 6 8 8 10 13 11 14 17 18 18 11 7 9 12 12 13 14 15 16 18 19 21 22 21 20 17
2 2 3 7 3 4 2 3 2 2 2 5 4 1 1 3 3 1 3 2 3 2 4 3 4 2 2 3 5 3 2 6 8 10 7 3 3 2 1 1 2 3 4 3 2 5 3 2 2 1 5 5 3 1 10 12 2 4 6 10 11 11 8 10 10 10 9 12 16 18 15 12 11 9 12 14 14 18 20 19 17 16 19 20 19 20 18 15
2 1 1 4 5 3 3 0 1 1 3 2 3 2 1 1 1 2 4 2 1 2 1 3 4 2 1 4 7 7 8 8 8 8 5 4 2 3 3 1 0 1 1 0 1 1 1 2 4 3 6 4 5 6 12 8 5 4 6 6 6 5 4 9 10 11 12 11 13 14 15 14 12 11 14 17 20 21 21 18 17 19 18 17 17 16 14 15
Wind_Direction
297 266 245 281 292 279 274 273 267 265 265 265 255 245 237 236 235 235 237 247 255 260 268 269 282 309 326 301 291 350 124 234 94 122 281 58 2 293 246 209 168 145 176 183 147 173 143 150 143 140 170 199 111 216 104 211 197 199 221 241 252 250 250 261 259 264 356 293 296 213 179 282 295 147 166 219 232 233 246 233 226 240 241 241 230 126 90 139
293 295 299 307 293 279 273 270 268 266 261 256 253 241 229 226 228 229 237 238 241 250 260 282 290 312 320 293 286 1 149 197 222 108 31 14 340 309 298 134 142 146 192 247 193 181 170 168 147 173 173 197 89 218 181 171 213 218 240 241 263 262 280 303 278 283 276 281 307 309 185 269 286 323 36 280 275 222 247 239 222 237 244 238 225 186 173 166
275 281 278 274 270 271 273 269 264 256 252 246 242 239 232 226 228 226 229 232 235 247 243 279 307 317 296 280 251 202 222 199 219 165 113 7 317 332 360 89 125 133 326 8 33 229 247 270 159 180 191 226 163 187 212 161 200 227 256 254 256 250 279 241 246 261 262 299 294 298 315 251 278 297 71 262 283 273 255 262 210 226 246 238 225 186 191 185
265 251 256 254 258 260 262 263 261 258 253 251 251 252 245 238 233 232 227 231 233 234 226 229 274 286 273 264 234 188 224 269 247 106 106 336 328 359 60 98 102 116 110 64 94 98 102 132 152 221 177 239 119 215 208 169 225 127 222 247 278 352 274 265 234 263 288 287 286 299 22 277 256 234 235 272 284 268 261 246 243 257 254 260 225 188 186 199
274 262 263 261 259 260 259 257 256 257 256 248 240 242 243 238 235 232 227 224 229 228 226 238 237 235 245 252 237 200 248 267 98 280 42 335 352 81 94 92 97 95 60 119 113 91 134 141 158 150 239 218 174 206 239 169 262 216 240 263 278 241 265 269 259 39 290 28 275 270 281 293 56 234 230 243 251 267 269 301 217 251 269 277 214 184 189 206
272 266 268 268 265 264 261 255 249 248 245 239 229 223 228 231 230 229 225 218 220 218 219 232 239 225 222 248 227 217 237 297 96 125 8 333 61 97 105 99 92 108 129 101 129 113 158 139 191 194 201 238 198 230 110 209 147 246 238 242 251 256 264 328 292 91 193 265 252 267 296 322 261 272 244 238 241 255 268 294 297 284 310 358 338 173 201 209
286 285 285 284 276 266 260 251 243 240 238 237 229 219 218 220 220 219 218 211 209 214 212 231 224 228 235 267 290 233 247 23 202 101 53 54 89 112 109 109 124 129 168 127 141 185 177 173 222 218 229 248 234 244 140 185 196 247 271 72 263 189 246 267 279 94 246 249 264 323 330 270 270 277 254 245 248 250 267 278 289 235 110 238 221 204 213 210
298 300 294 292 287 276 263 260 252 244 240 236 235 224 216 215 215 210 205 202 207 208 206 205 226 240 233 216 186 177 227 158 114 104 16 81 103 102 110 89 100 120 145 294 185 194 180 204 220 127 244 260 87 226 124 235 193 241 253 259 272 250 252 273 287 263 249 249 269 290 270 260 254 267 349 266 264 266 265 264 262 242 233 235 243 236 225 226
305 305 296 297 288 276 279 270 260 247 237 232 230 226 215 206 207 205 195 198 198 198 193 195 216 236 245 242 206 213 179 80 43 91 160 151 112 97 227 151 143 171 112 115 332 235 217 200 229 211 304 227 153 247 164 252 244 211 253 301 271 266 276 290 284 260 249 271 160 254 258 261 261 351 269 258 272 272 267 262 259 255 249 250 246 244 235 231
312 312 312 318 318 334 12 342 281 253 229 221 222 220 211 200 194 195 194 183 182 178 184 191 200 195 228 180 156 249 100 74 103 57 83 111 126 140 140 101 159 140 172 108 153 175 216 216 242 195 253 259 175 237 79 205 302 37 293 278 283 284 299 267 252 260 95 263 148 264 276 273 135 89 278 291 344 92 195 252 257 247 251 252 248 243 236 235
319 317 324 328 346 37 58 54 53 85 190 196 202 202 197 182 176 176 181 175 171 172 179 191 196 230 174 245 202 182 130 143 122 92 58 164 159 191 163 156 190 169 115 151 225 214 236 220 152 113 209 287 160 202 225 242 351 313 322 295 268 262 241 238 251 254 238 278 178 240 270 272 208 164 247 223 121 81 284 272 248 233 247 254 252 247 241 236
322 324 328 332 10 69 69 63 68 102 141 164 176 177 170 160 161 168 161 161 166 171 177 188 175 181 104 201 228 62 168 84 144 95 38 10 106 36 54 33 204 265 213 271 213 203 216 153 174 191 296 116 241 7 211 21 279 331 313 297 290 281 281 218 269 64 232 241 202 240 280 258 173 229 239 255 307 287 276 276 267 251 249 253 258 255 244 239
328 332 328 328 51 71 69 70 77 93 118 128 136 137 136 147 156 154 153 151 166 173 173 158 153 260 192 203 152 76 254 152 133 130 81 49 104 81 66 55 42 311 315 266 263 123 165 168 193 221 81 234 341 287 104 245 270 278 225 294 302 290 274 74 187 100 215 138 245 261 301 299 209 220 228 133 266 247 270 269 271 262 250 251 254 254 254 249
339 338 326 346 65 78 78 77 81 90 99 113 110 121 131 141 149 153 163 161 161 171 165 148 272 213 228 344 115 56 160 127 160 316 13 285 191 84 154 71 72 49 2 285 59 57 131 228 185 76 65 271 263 104 199 179 194 276 39 202 271 312 290 124 88 144 271 118 264 237 269 289 294 54 126 116 218 261 274 278 280 278 271 262 253 255 260 256
341 340 336 24 64 81 81 79 79 93 104 111 118 121 132 142 148 158 155 153 168 169 152 135 265 197 213 104 341 19 121 199 88 22 349 4 19 153 169 355 56 36 40 47 114 66 140 143 147 183 156 78 257 245 257 267 220 287 282 232 174 244 271 150 109 175 249 119 214 240 263 264 291 302 123 113 141 149 270 283 283 283 281 282 281 274 270 273
345 347 349 34 65 90 90 88 90 97 108 112 117 122 130 138 149 149 161 146 153 157 219 225 101 294 216 227 110 127 193 220 77 1 25 341 45 343 17 349 95 94 174 68 67 127 67 98 28 31 174 173 233 257 285 283 219 186 229 281 287 262 294 307 122 319 353 122 208 243 278 304 292 110 137 166 164 218 281 284 285 286 289 297 302 302 302 304
354 350 354 36 55 99 97 101 103 109 114 115 112 117 122 129 122 126 98 88 43 219 266 198 130 276 285 66 215 205 126 85 260 153 60 50 4 3 326 127 45 80 99 123 121 192 61 234 128 204 99 275 25 245 285 260 248 196 169 273 281 283 305 299 131 122 136 217 220 215 247 263 268 278 262 188 231 282 281 288 297 309 318 321 320 323 326 329
356 346 353 25 41 104 101 106 118 126 127 124 120 130 122 120 128 128 128 71 168 129 105 101 269 240 173 209 202 110 69 298 1 14 27 68 23 49 17 166 121 122 139 139 126 230 337 226 215 268 216 185 203 209 235 278 335 313 296 294 287 265 232 259 282 114 191 173 253 253 254 270 273 274 277 278 239 273 289 306 318 320 324 335 346 350 352 349
355 333 338 4 46 121 115 109 122 138 141 130 112 91 89 84 59 24 92 208 204 218 202 165 201 273 20 122 327 283 198 8 236 272 92 26 25 72 90 55 97 177 170 242 128 220 119 221 215 246 246 203 212 212 232 271 308 289 290 283 288 290 290 259 259 112 280 285 271 240 251 278 286 287 287 285 190 315 313 315 325 353 2 8 10 7 0 357
340 319 318 334 67 108 125 118 132 133 137 130 138 137 172 181 175 177 130 201 243 336 339 357 54 80 184 26 351 17 53 240 197 52 66 54 286 192 5 340 142 196 181 243 132 92 6 244 238 236 238 221 214 218 248 334 355 303 262 258 267 272 278 279 247 103 118 288 264 262 253 270 280 284 287 307 13 6 353 7 22 18 12 11 7 4 2 0
312 305 291 275 138 95 107 124 138 144 119 132 160 198 286 115 313 16 238 85 67 249 353 34 352 302 326 43 323 328 287 110 40 73 44 327 352 231 178 213 178 223 193 18 320 70 250 259 251 243 263 303 293 225 207 241 226 255 272 267 277 257 264 276 328 122 159 219 273 145 275 277 284 289 292 351 42 35 29 31 26 18 14 12 8 7 7 359
292 279 269 238 152 127 115 114 147 147 86 76 250 226 127 227 336 3 339 249 109 48 36 46 233 223 91 227 21 277 202 334 121 124 94 310 54 284 88 244 175 261 90 163 198 225 229 242 263 83 71 86 81 153 196 231 244 224 249 274 280 270 260 277 359 93 149 195 268 283 289 280 280 284 305 61 73 54 46 42 31 19 15 13 11 8 5 5
272 263 251 229 165 126 144 113 128 133 162 220 204 167 205 46 266 265 226 112 255 52 91 37 148 10 111 98 45 237 332 358 325 53 7 352 194 2 271 242 217 213 156 193 242 253 271 241 345 64 128 132 95 121 164 200 230 245 235 240 249 280 15 297 102 73 165 228 297 306 294 279 270 272 65 92 76 70 56 45 36 26 19 15 12 10 6 8
251 250 233 214 147 140 143 133 121 138 203 240 167 197 49 316 80 162 275 306 337 2 29 57 318 325 31 349 33 316 19 35 260 77 35 329 316 140 233 150 187 173 240 200 227 246 258 72 181 113 119 207 233 135 191 235 265 224 232 256 268 272 264 235 309 319 279 235 253 276 266 257 229 244 108 101 91 62 41 41 36 31 25 18 14 19 18 12
247 238 220 181 170 154 160 144 175 194 96 153 91 229 343 290 271 223 264 170 167 156 178 141 186 68 50 200 327 319 74 183 286 337 318 322 158 256 55 33 260 241 183 130 223 257 263 61 116 239 129 194 244 245 219 254 270 273 228 238 260 281 286 287 304 329 294 259 146 290 332 307 106 177 142 118 59 51 36 34 31 24 19 13 17 19 19 18
254 232 216 190 178 171 137 179 195 144 192 185 112 115 339 307 244 256 213 64 36 18 192 71 227 92 257 90 5 67 131 266 75 345 322 19 303 299 120 181 311 297 154 178 265 277 332 6 1 260 210 228 227 255 41 195 268 288 312 7 293 278 289 284 294 304 293 300 117 329 332 292 272 223 34 47 60 48 34 33 26 26 20 16 16 18 15 14
284 221 197 196 172 152 147 215 67 121 205 184 133 321 291 243 250 190 247 265 159 41 5 8 287 57 284 26 350 264 285 85 82 115 229 30 346 237 270 79 186 145 2 263 274 217 136 79 97 112 158 197 235 267 172 196 249 265 56 305 346 255 261 276 270 249 269 308 268 188 223 244 288 273 53 47 65 41 30 25 21 17 17 15 18 19 13 8
323 160 182 181 161 205 292 107 135 194 269 51 334 284 224 219 236 276 254 60 9 4 359 12 29 307 347 350 20 303 310 321 271 128 243 354 269 191 263 254 262 294 152 229 278 58 242 81 179 169 161 226 267 19 77 205 216 351 59 314 351 1 300 269 253 274 296 341 300 164 191 230 242 167 71 38 35 15 18 15 12 11 12 16 17 13 6 1
77 136 156 147 109 93 69 114 139 148 61 321 298 234 161 196 199 66 257 164 104 54 148 70 108 136 1 211 57 38 320 28 302 46 312 245 8 290 254 190 246 54 56 263 261 235 93 16 84 19 284 297 66 11 290 196 234 87 137 133 101 163 124 252 266 273 278 283 275 207 179 241 261 9 4 32 44 13 356 2 5 8 11 13 9 7 4 1
83 112 138 138 115 142 81 72 40 41 324 323 269 211 206 230 236 208 32 241 326 43 336 301 262 331 359 339 58 3 354 12 226 309 15 241 9 176 92 1 226 258 221 144 246 272 41 102 332 279 299 29 128 57 197 282 9 81 197 270 238 217 226 174 281 267 246 244 263 38 203 229 290 56 10 18 33 349 347 353 3 5 11 12 10 6 4 359
54 44 140 257 101 110 31 67 47 45 302 212 229 167 192 42 60 91 94 344 344 345 220 30 10 21 23 9 350 58 228 320 333 334 249 264 183 210 206 179 174 219 218 220 225 269 240 139 203 94 71 126 165 120 76 81 101 277 285 319 310 243 152 212 207 188 250 275 65 324 178 256 262 133 64 64 47 27 6 356 356 1 5 7 8 3 1 5
76 62 52 65 54 341 3 137 33 257 319 241 150 78 87 252 104 290 36 79 271 19 359 343 85 16 344 34 217 344 340 305 3 5 4 2 357 22 18 20 351 338 15 31 335 293 242 92 46 87 246 230 184 234 146 134 184 228 255 265 298 303 309 281 177 255 229 291 99 84 255 293 241 45 91 75 61 27 22 10 1 358 358 2 5 3 6 12
77 83 69 47 46 53 53 12 326 184 236 275 72 24 336 78 42 51 279 328 55 317 28 156 319 348 317 239 29 344 242 347 6 133 282 233 308 90 289 6 352 324 335 11 295 344 347 103 235 147 154 197 267 299 342 219 137 216 260 316 300 307 311 288 293 289 275 219 107 50 80 265 89 125 104 96 61 36 28 17 9 8 1 0 5 4 7 11
55 342 75 17 66 65 53 12 9 229 80 42 45 94 61 357 85 160 304 299 333 51 292 326 320 215 356 50 5 335 309 170 3 354 306 354 16 52 85 110 21 353 300 297 319 6 316 329 131 219 80 76 247 317 349 309 310 348 35 300 312 298 300 297 298 296 298 302 321 115 333 227 241 115 149 108 79 49 36 18 16 15 10 5 2 7 8 8
88 70 97 139 115 80 37 358 177 224 151 60 64 64 118 275 205 240 216 343 311 300 236 137 284 253 102 135 359 220 349 333 77 336 26 1 47 43 18 9 14 347 278 311 99 263 264 271 75 44 44 294 217 105 297 339 228 92 340 29 241 272 319 262 303 294 300 308 302 247 251 31 42 121 138 124 65 49 28 23 12 17 17 10 10 11 10 10
281 31 32 42 11 10 49 328 201 216 113 80 93 59 49 299 29 192 62 352 290 322 315 262 217 307 39 177 140 68 97 325 6 337 108 36 37 38 358 5 1 6 7 12 343 333 324 311 112 93 336 183 85 174 182 326 328 81 232 270 27 1 263 284 281 197 299 249 255 237 262 112 98 192 153 150 39 35 25 21 18 12 10 9 14 10 9 7
45 311 61 340 32 4 349 284 257 88 69 89 97 100 124 212 293 198 356 307 357 331 271 326 33 5 0 347 346 356 22 204 5 335 55 191 105 19 7 68 358 339 23 354 344 121 337 295 83 163 103 172 43 282 305 311 315 244 285 10 315 178 235 274 294 311 285 277 276 281 273 282 207 299 162 209 23 17 16 15 12 11 6 11 10 6 4 6
80 65 143 61 323 336 316 286 269 58 73 93 82 111 263 144 150 276 70 236 216 200 300 329 50 324 38 340 1 358 341 303 14 323 47 354 85 344 0 10 70 6 323 302 316 355 355 299 53 352 98 126 151 224 211 160 317 294 341 320 312 330 298 140 141 282 305 285 288 275 282 276 271 273 87 0 1 353 0 3 6 8 8 3 2 4 2 359
79 128 50 335 38 324 322 283 80 57 99 90 100 140 188 300 86 33 37 327 298 299 265 74 336 53 27 82 317 216 349 3 331 2 320 50 150 30 53 304 3 351 280 289 285 11 256 268 298 183 305 133 210 250 337 348 135 136 245 255 71 237 247 289 295 318 277 277 287 286 286 283 75 34 7 353 357 357 354 2 7 6 5 359 355 355 356 352
79 75 36 357 355 344 284 241 55 51 48 82 169 53 11 194 80 104 131 269 68 285 62 358 165 325 61 54 337 354 20 3 338 341 333 27 100 58 32 345 322 320 325 307 292 334 292 143 284 174 198 251 319 6 336 330 329 102 223 354 160 292 267 266 263 223 262 282 281 291 284 278 86 87 59 26 6 1 357 358 0 1 0 1 359 354 351 351
306 95 258 325 342 317 276 45 47 34 92 128 8 96 137 30 114 96 112 186 250 224 340 23 137 346 357 337 97 66 306 345 303 351 22 65 8 166 70 347 322 315 322 181 196 16 282 260 270 306 321 324 314 52 334 258 47 70 14 357 340 321 325 308 297 88 5 285 285 291 280 284 83 74 52 24 23 4 2 358 354 354 353 351 354 353 348 344
92 62 53 355 341 281 152 61 37 294 81 71 77 352 84 66 121 39 46 156 284 56 23 99 58 46 72 33 359 263 303 324 345 291 56 46 45 37 6 1 282 277 315 7 340 47 356 291 290 283 285 304 305 28 54 13 59 61 33 10 23 340 272 292 300 304 311 278 213 263 282 289 78 35 53 51 32 14 11 1 354 354 348 346 345 346 345 341
37 73 279 347 332 42 68 71 263 49 61 57 211 84 318 41 56 8 68 13 105 19 52 47 32 346 82 342 314 290 270 317 345 21 64 98 115 5 322 323 304 286 265 67 198 244 165 242 288 277 279 263 244 102 95 105 126 181 86 82 335 335 352 306 292 304 295 293 290 284 266 296 101 54 95 50 32 15 14 5 356 350 346 345 343 344 345 339
97 72 67 321 354 81 78 135 106 93 95 158 70 79 7 45 16 40 21 26 21 15 49 36 126 46 31 32 236 338 9 297 122 307 112 114 113 155 294 325 358 31 358 27 326 14 311 68 329 308 311 322 176 147 209 209 249 0 335 45 36 324 220 272 262 267 260 276 284 278 277 303 95 89 61 15 1 359 359 358 357 345 345 344 344 345 342 335
116 121 284 325 2 25 133 26 123 121 100 104 73 44 11 97 36 14 347 48 356 36 226 63 359 310 333 3 12 253 302 342 322 81 143 39 47 112 305 347 7 31 11 309 303 318 279 294 309 321 332 329 337 330 337 328 327 341 105 43 15 34 318 320 305 314 291 296 321 288 292 304 356 320 1 353 345 338 338 343 345 346 343 342 337 339 335 330
95 120 325 9 10 51 80 298 30 116 122 142 64 22 256 69 110 37 311 84 27 37 41 233 156 273 30 336 35 21 32 54 271 357 6 6 0 349 16 334 45 13 343 76 357 248 257 314 249 275 269 289 296 300 308 333 311 308 313 126 32 49 6 246 296 277 297 336 311 296 317 329 320 326 324 328 330 324 325 330 340 340 337 335 334 332 332 326
96 84 5 123 350 56 72 28 39 345 115 256 95 339 28 11 289 104 256 77 50 13 81 44 18 8 2 7 15 2 20 315 70 219 36 333 334 301 325 334 337 5 329 20 4 170 25 264 68 334 282 287 298 287 297 310 297 304 319 334 100 78 188 323 311 311 349 310 280 342 341 318 309 316 320 323 328 324 322 321 327 336 336 335 330 324 322 322
76 190 91 341 11 40 31 46 6 85 50 8 90 276 37 11 30 43 35 90 210 272 299 168 44 45 11 349 346 353 347 331 22 31 332 145 329 335 349 68 40 337 352 51 1 34 11 296 59 98 269 278 279 281 293 299 298 310 308 335 0 5 19 50 3 8 356 334 310 316 313 309 306 308 312 328 331 325 319 319 323 325 325 329 326 321 322 321
44 118 86 301 116 5 10 157 3 70 69 37 98 29 56 59 67 30 3 328 77 29 9 43 19 16 12 331 339 42 13 2 359 72 169 317 74 311 342 333 138 26 16 46 39 94 274 215 247 256 283 282 277 287 300 315 315 308 3 21 24 16 22 38 11 354 351 322 314 314 310 297 295 309 324 334 339 336 327 314 312 322 329 328 322 320 320 319
179 164 126 12 81 95 31 29 88 45 72 338 91 359 35 24 79 65 53 10 47 32 348 43 3 0 11 47 39 89 27 288 252 268 233 135 301 160 281 9 335 7 29 23 346 9 344 5 61 286 279 276 287 84 167 329 315 308 69 42 32 30 30 21 355 342 336 317 317 310 303 293 307 26 339 338 329 324 322 321 320 318 324 324 319 316 315 314
71 6 132 132 81 4 331 16 26 33 92 14 63 50 110 2 79 10 73 330 36 14 359 354 343 285 130 45 68 53 255 270 262 250 263 234 263 51 308 17 51 309 354 3 25 331 15 316 116 319 313 307 133 313 327 312 346 82 48 24 22 19 21 349 338 321 319 311 310 306 304 304 328 331 322 318 327 331 330 324 320 320 320 319 316 320 317 317
100 103 44 106 91 335 27 15 322 213 57 30 29 30 72 62 341 225 113 87 66 54 354 329 332 265 192 6 13 339 313 291 274 279 283 259 242 74 39 35 321 307 315 87 218 355 9 318 327 352 316 303 121 324 313 310 138 153 51 30 17 8 10 330 315 314 308 308 299 306 303 307 318 324 325 327 329 326 323 318 314 315 311 309 311 308 306 307